Torna al catalogo

KAZEOSAT 1

AttivoScienzaSSO
NORAD 39731·PAYLOAD·🇰🇿 Kazakhstan

Lanciato Apr 30, 2014 da Guiana Space Centre

Loading…

Prossimi Passaggi (prossime 24 ore)

TLE

AggiornatoSource: Space-Track

Epoca: Sep 14, 2026, 14:22 UTC

1 39731U 14024A   26257.59892052  .00000181  00000-0  68236-4 0  9995
2 39731  98.3135 327.7851 0001409  91.8292 268.3059 14.42064044651444

Traccia KAZEOSAT 1 in tempo reale con AllMySat

Download on the App Store